吉林一号 高分 2F (JILIN-1 GAOFEN 2F)

导读

JILIN-01 GAOFEN 2F(吉林一号高分2F)是中国发射的商业光学遥感卫星,于2021年10月27日成功发射入轨,属于“吉林一号”卫星星座组成部分。作为高分辨率对地观测卫星,它具备多元成像能力,能够为国土资源监测、城市建设、农业林业资源普查、防灾减灾等领域提供精准遥感数据服务,推动中国商业航天遥感应用产业化发展,服务国民经济多领域应用需求。

Basic Information
目录编号:
49338
目录名称:
JILIN-01 GAOFEN 2F
国际标识:
2021-097A
轨道中心:
EARTH
卫星名称:
高分 2F
卫星全名:
吉林一号 高分 2F (JILIN-1 GAOFEN 2F)
卫星状态:
在轨 (已飞行1690 天)
发射日期:
2021-10-27 UTC
国别 :
中国 (CN)
星等 :
--
Orbit Information
数据来源 国际轨道数据 AOE轨道数据
星历时间 2026-06-13T04:29:53+0800
5小时前
查看轨道信息
2026-06-12T05:00:00+0800
1天前
查看轨道信息
半长轴 6921.296km 6921.33km
偏心率 0.0017502 0.0017397
轨道倾角 97.669° 97.670°
近地点辐角 239.450° 241.729°
升交点赤经 290.065° 289.090°
平近点角 120.500° 207.292°
近地点 531.045km 531.151km
远地点 555.273km 555.235km
周期 95.508分钟 95.509分钟
每日圈数 15.077233 15.077124
Detailed Information
卫星平台:
CS-L3000A
平衡模式:
三轴稳定
覆盖范围:
全球
运营商:
长光卫星技术股份有限公司
运营商所在国:
中国
制造商(研发单位):
长光卫星技术股份有限公司
制造商所在国:
中国
使用方式:
暂无
Satellite Introduction
“吉林一号”卫星星座(JiLin-1)是长光卫星技术有限公司在建的核心工程,是我国目前最大的商业遥感卫星星座,具备了较强的服务能力。该卫星仍在工作。
2D Orbit Map
3D Orbit Map
Orbit Altitude Analysis Chart
Orbit Inclination Analysis Chart
Orbit Comprehensive Analysis Chart
View Comprehensive Chart